• In Portugal
  • List of Countries
  • For 7 days
  • Water Temperature
  • Satellite Maps
  • Weather Map
  • Weather Widgets
  • user-avatar
    Login

    Hourly Weather Orange Walk

    Today, 21 November, Tuesday

    Time Temperature Precipitation Wind Pressure Humidity
    00:00 +22°C° 0 mm 1 mps 758 mmHg 92%
    01:00 +22°C° 0 mm 1 mps 758 mmHg 92%
    02:00 +22°C° 0 mm 1 mps 758 mmHg 93%
    03:00 +21°C° 0 mm 1 mps 758 mmHg 94%
    04:00 +21°C° 0 mm 1 mps 758 mmHg 94%
    05:00 +21°C° 0 mm 1 mps 758 mmHg 94%
    06:00 +21°C° 0 mm 1 mps 758 mmHg 94%
    07:00 +23°C° 0 mm 1 mps 758 mmHg 85%
    08:00 +26°C° 0 mm 1 mps 758 mmHg 75%
    09:00 +28°C° 0 mm 1 mps 759 mmHg 66%
    10:00 +29°C° 0 mm 1 mps 758 mmHg 61%
    11:00 +31°C° 0 mm 1 mps 758 mmHg 55%
    12:00 +32°C° 0 mm 1 mps 757 mmHg 50%
    13:00 +32°C° 0 mm 1 mps 757 mmHg 53%
    14:00 +31°C° 0 mm 1 mps 756 mmHg 55%
    15:00 +31°C° 0 mm 1 mps 756 mmHg 57%
    16:00 +29°C° 0 mm 1 mps 756 mmHg 66%
    17:00 +27°C° 0 mm 1 mps 756 mmHg 74%
    18:00 +25°C° 0 mm 1 mps 756 mmHg 83%
    19:00 +25°C° 0 mm 1 mps 756 mmHg 86%
    20:00 +24°C° 0 mm 1 mps 757 mmHg 89%
    21:00 +23°C° 0 mm 1 mps 757 mmHg 92%
    22:00 +23°C° 0 mm 1 mps 757 mmHg 93%
    23:00 +23°C° 0 mm 1 mps 757 mmHg 94%

    Tomorrow, 22 November, Wednesday

    Time Temperature Precipitation Wind Pressure Humidity
    00:00 +21°C° 0 mm 0 mps 757 mmHg 95%
    01:00 +20°C° 0 mm 0 mps 757 mmHg 95%
    02:00 +20°C° 0 mm 0 mps 757 mmHg 96%
    03:00 +20°C° 0 mm 0 mps 756 mmHg 96%
    04:00 +20°C° 0 mm 0 mps 756 mmHg 97%
    05:00 +20°C° 0 mm 0 mps 757 mmHg 97%
    06:00 +19°C° 0 mm 0 mps 757 mmHg 98%
    07:00 +22°C° 0 mm 0 mps 757 mmHg 87%
    08:00 +25°C° 0 mm 0 mps 758 mmHg 76%
    09:00 +27°C° 0 mm 0 mps 758 mmHg 66%
    10:00 +29°C° 0 mm 0 mps 758 mmHg 60%
    11:00 +30°C° 0 mm 0 mps 758 mmHg 54%
    12:00 +32°C° 0 mm 0 mps 758 mmHg 48%
    13:00 +31°C° 0 mm 0 mps 757 mmHg 51%
    14:00 +32°C° 0 mm 1 mps 756 mmHg 54%
    15:00 +31°C° 0 mm 1 mps 756 mmHg 57%
    16:00 +29°C° 0.1 mm 1 mps 756 mmHg 65%
    17:00 +27°C° 0.1 mm 1 mps 757 mmHg 73%
    18:00 +25°C° 0.1 mm 1 mps 757 mmHg 81%
    19:00 +25°C° 0.7 mm 1 mps 758 mmHg 86%
    20:00 +24°C° 0.7 mm 1 mps 758 mmHg 90%
    21:00 +23°C° 0.7 mm 1 mps 759 mmHg 95%
    22:00 +22°C° 0.3 mm 1 mps 759 mmHg 96%
    23:00 +22°C° 0.3 mm 1 mps 759 mmHg 97%

    Day after tomorrow, 23 November, Thursday

    Time Temperature Precipitation Wind Pressure Humidity
    00:00 +22°C° 0.3 mm 1 mps 759 mmHg 98%
    01:00 +20°C° 0 mm 2 mps 759 mmHg 98%
    02:00 +20°C° 0 mm 2 mps 758 mmHg 98%
    03:00 +20°C° 0 mm 2 mps 758 mmHg 99%
    04:00 +20°C° 0 mm 2 mps 758 mmHg 99%
    05:00 +20°C° 0 mm 2 mps 758 mmHg 98%
    06:00 +21°C° 0 mm 2 mps 759 mmHg 98%
    07:00 +22°C° 0 mm 3 mps 759 mmHg 93%
    08:00 +24°C° 0 mm 3 mps 760 mmHg 88%
    09:00 +25°C° 0 mm 3 mps 760 mmHg 83%
    10:00 +26°C° 0 mm 3 mps 760 mmHg 77%
    11:00 +27°C° 0 mm 3 mps 759 mmHg 70%
    12:00 +28°C° 0 mm 3 mps 759 mmHg 64%
    13:00 +29°C° 0 mm 3 mps 758 mmHg 61%
    14:00 +29°C° 0 mm 3 mps 757 mmHg 58%
    15:00 +30°C° 0 mm 2 mps 756 mmHg 56%
    16:00 +28°C° 0 mm 2 mps 757 mmHg 62%
    17:00 +26°C° 0 mm 2 mps 757 mmHg 69%
    18:00 +25°C° 0 mm 2 mps 758 mmHg 76%
    19:00 +24°C° 0 mm 2 mps 758 mmHg 78%
    20:00 +23°C° 0 mm 2 mps 759 mmHg 81%
    21:00 +23°C° 0 mm 2 mps 759 mmHg 83%
    22:00 +21°C° 0 mm 2 mps 759 mmHg 87%
    23:00 +20°C° 0 mm 2 mps 759 mmHg 91%

    24 November, Friday

    Time Temperature Precipitation Wind Pressure Humidity
    00:00 +20°C° 0 mm 2 mps 759 mmHg 95%
    01:00 +19°C° 0 mm 2 mps 759 mmHg 96%
    02:00 +19°C° 0 mm 2 mps 759 mmHg 97%
    03:00 +19°C° 0 mm 2 mps 759 mmHg 98%
    04:00 +19°C° 0 mm 2 mps 759 mmHg 98%
    05:00 +18°C° 0 mm 2 mps 759 mmHg 98%
    06:00 +18°C° 0 mm 2 mps 760 mmHg 98%
    07:00 +20°C° 0 mm 2 mps 760 mmHg 90%
    08:00 +23°C° 0 mm 2 mps 761 mmHg 81%
    09:00 +25°C° 0 mm 2 mps 761 mmHg 72%
    10:00 +26°C° 0 mm 2 mps 761 mmHg 65%
    11:00 +27°C° 0 mm 2 mps 760 mmHg 58%
    12:00 +29°C° 0 mm 2 mps 760 mmHg 51%
    13:00 +29°C° 0 mm 2 mps 759 mmHg 52%
    14:00 +29°C° 0 mm 2 mps 758 mmHg 53%
    15:00 +29°C° 0 mm 1 mps 758 mmHg 53%
    16:00 +27°C° 0 mm 1 mps 758 mmHg 59%
    17:00 +25°C° 0 mm 1 mps 758 mmHg 65%
    18:00 +24°C° 0 mm 1 mps 759 mmHg 72%
    19:00 +23°C° 0 mm 1 mps 759 mmHg 74%
    20:00 +23°C° 0 mm 1 mps 760 mmHg 77%
    21:00 +22°C° 0 mm 1 mps 761 mmHg 80%
    22:00 +22°C° 0 mm 1 mps 760 mmHg 83%
    23:00 +21°C° 0 mm 1 mps 760 mmHg 85%

    25 November, Saturday

    Time Temperature Precipitation Wind Pressure Humidity
    00:00 +21°C° 0 mm 1 mps 760 mmHg 87%
    01:00 +20°C° 0 mm 1 mps 760 mmHg 88%
    02:00 +20°C° 0 mm 1 mps 760 mmHg 89%
    03:00 +20°C° 0 mm 1 mps 760 mmHg 89%
    04:00 +19°C° 0 mm 1 mps 760 mmHg 90%
    05:00 +19°C° 0 mm 1 mps 760 mmHg 91%
    06:00 +18°C° 0 mm 1 mps 760 mmHg 92%
    07:00 +21°C° 0 mm 1 mps 761 mmHg 83%
    08:00 +23°C° 0 mm 1 mps 761 mmHg 73%
    09:00 +25°C° 0 mm 1 mps 762 mmHg 64%
    10:00 +27°C° 0 mm 1 mps 761 mmHg 59%
    11:00 +28°C° 0 mm 1 mps 761 mmHg 54%
    12:00 +30°C° 0 mm 1 mps 760 mmHg 49%
    13:00 +29°C° 0 mm 1 mps 759 mmHg 52%
    14:00 +29°C° 0 mm 1 mps 759 mmHg 55%
    15:00 +28°C° 0 mm 1 mps 759 mmHg 59%
    16:00 +27°C° 0 mm 1 mps 759 mmHg 63%
    17:00 +25°C° 0 mm 1 mps 759 mmHg 67%
    18:00 +24°C° 0 mm 1 mps 760 mmHg 72%
    19:00 +23°C° 0 mm 1 mps 760 mmHg 73%
    20:00 +23°C° 0 mm 1 mps 761 mmHg 74%
    21:00 +22°C° 0 mm 1 mps 761 mmHg 76%
    22:00 +22°C° 0 mm 1 mps 761 mmHg 78%
    23:00 +21°C° 0 mm 1 mps 761 mmHg 79%

    26 November, Sunday

    Time Temperature Precipitation Wind Pressure Humidity
    00:00 +21°C° 0 mm 1 mps 761 mmHg 81%
    01:00 +20°C° 0 mm 1 mps 761 mmHg 83%
    02:00 +19°C° 0 mm 2 mps 761 mmHg 85%
    03:00 +18°C° 0 mm 2 mps 760 mmHg 87%
    04:00 +18°C° 0 mm 2 mps 761 mmHg 88%
    05:00 +18°C° 0 mm 2 mps 761 mmHg 90%
    06:00 +17°C° 0 mm 2 mps 762 mmHg 92%
    07:00 +19°C° 0 mm 2 mps 762 mmHg 84%
    08:00 +21°C° 0 mm 2 mps 763 mmHg 76%
    09:00 +24°C° 0 mm 2 mps 763 mmHg 68%
    10:00 +26°C° 0 mm 2 mps 763 mmHg 62%
    11:00 +27°C° 0 mm 2 mps 762 mmHg 56%
    12:00 +28°C° 0 mm 2 mps 761 mmHg 51%
    13:00 +28°C° 0 mm 2 mps 761 mmHg 51%
    14:00 +28°C° 0 mm 2 mps 760 mmHg 52%
    15:00 +28°C° 0 mm 2 mps 760 mmHg 53%
    16:00 +26°C° 0 mm 2 mps 760 mmHg 59%
    17:00 +25°C° 0 mm 1 mps 761 mmHg 66%
    18:00 +23°C° 0 mm 1 mps 761 mmHg 72%
    19:00 +22°C° 0 mm 1 mps 761 mmHg 74%
    20:00 +22°C° 0 mm 1 mps 762 mmHg 77%
    21:00 +21°C° 0 mm 1 mps 762 mmHg 79%
    22:00 +19°C° 0 mm 2 mps 762 mmHg 81%
    23:00 +19°C° 0 mm 2 mps 762 mmHg 83%
    Show more